Location: Austin
(30.3000°N, 97.7500°W)
Time: 05:15:35
(UTC-06:00)

Cosmos 1486 Rocket - Pass Details

Date: 05 February 2026
Orbit: 754 x 779 km, 74.1° (Epoch: 14 February)

Event Time Altitude Azimuth Distance (km) Brightness Sun altitude
Rises 06:23:06 0° 193° (SSW) 3,238 7.2 -12.5°
Reaches altitude 10° 06:25:28 10° 193° (SSW) 2,316 6.5 -12.0°
Maximum altitude 06:30:44 86° 104° (ESE) 784 4.1 -10.9°
Drops below altitude 10° 06:36:03 10° 17° (NNE) 2,332 6.6 -9.8°
Sets 06:38:26 0° 17° (NNE) 3,263 7.3 -9.3°
